Погода в Китаевском

Россия / Ставропольский край     44°47′06″N   43°19′31″E
темп.,
°C
ветер,
м/с
пор.,
м/с
влажн.,
%
обл.,
%
осадки,
мм/ч
давл.,
гПа
погр.,
м
20 июня, вс
вс2000:00+18в616635 0.0 1014506
03:00+16в4156429 0.0 1013362
06:00+17всв2106865 0.0 1013329
09:00+24вюв5106328 0.0 1012808
12:00+30юв712405 0.0 10111523
15:00+31вюв61044100 0.0 10091236
18:00+28вюв59578 0.0 1010328
21:00+21всв310587 0.0 1013194
21 июня, пн
пн2100:00+18всв23573 0.0 101335
03:00+17всв23600 0.0 101244
06:00+19св27680 0.0 1012235
09:00+23в57550 0.0 1011600
12:00+28вюв68510 0.0 1011960
15:00+32вюв813370 0.0 10091659
18:00+26вюв613420 0.0 1010357
21:00+21всв494785 0.0 1012189
22 июня, вт
вт2200:00+20в51449100 0.0 1012412
03:00+18всв2259100 0.0 101112
06:00+20св13610 0.0 1011128
09:00+24вюв47500 0.0 1011620
12:00+29вюв710401 0.0 10111030
15:00+33юв411290 0.0 10091923
18:00+28вюв61441100 0.0 1009343
21:00+22св3445100 0.1 101146
23 июня, ср
ср2300:00+20ссв2252100 0.1 101212
03:00+18ссз32690 0.2 101221
06:00+20зсз22680 0.0 101250
09:00+25ссз22520 0.0 1012532
12:00+29сз11430 0.0 10121048
15:00+31вюв22400 0.0 10121469
18:00+30ююз235310 0.0 1012121
21:00+23вюв513465 0.1 1015282
24 июня, чт
чт2400:00+19всв22550 0.0 101514
03:00+17св115937 0.0 101411
06:00+19ссв116034 0.0 101455
09:00+24св11523 0.0 1015455
12:00+28в23420 0.0 10141015
15:00+32ююв25300 0.0 10121585
18:00+28з465651 0.0 1012161
21:00+23ссв13593 0.0 101346